Simultaneous Nadir Overpasses (SNOs) Predictions

Prediction of SNOs between LANDSAT-8 and NOAA-19 Satellite Orbit:

Table of predicted SNOs for the next 14.0 days since TLE Epoch: 3/2/2019
Index Date (LANDSAT-8) Time (LANDSAT-8) Lat,Lon (LANDSAT-8) SZA (LANDSAT-8 ) Date (NOAA-19) Time (NOAA-19) Lat,Lon (NOAA-19) SZA (NOAA-19 ) Distance(km) Time Diff (sec)
1 03/03/2019 12:29:00 78.53, 10.70 85.67 03/03/2019 12:28:20 78.53, 10.70 85.66 0.63 40
2 03/03/2019 13:18:28 -78.50, 178.17 94.39 03/03/2019 13:19:24 -78.51, 178.05 94.37 2.74 56
3 03/05/2019 18:02:44 -78.54, 107.29 95.18 03/05/2019 18:01:53 -78.56, 107.19 95.18 3.05 51
4 03/05/2019 18:52:10 78.53, -85.12 84.80 03/05/2019 18:52:48 78.49, -85.13 84.78 3.57 38
5 03/07/2019 23:36:26 78.56,-156.01 83.99 03/07/2019 23:35:18 78.57,-156.16 83.98 3.33 68
6 03/08/2019 00:25:54 -78.53, 11.47 96.06 03/08/2019 00:26:20 -78.50, 11.51 96.08 3.16 26
7 03/10/2019 05:10:03 -78.86, -57.84 96.50 03/10/2019 05:08:58 -78.87, -61.60 96.69 80.96 65
8 03/10/2019 05:59:37 78.51, 107.93 83.06 03/10/2019 05:59:46 78.54, 108.00 83.09 3.52 9
9 03/12/2019 11:33:20 -78.56,-155.26 97.76 03/12/2019 11:33:17 -78.55,-155.35 97.77 2.37 3
10 03/14/2019 17:07:02 78.58, -58.60 81.40 03/14/2019 17:06:43 78.56, -58.68 81.37 2.82 19




NCC Satellite Simultaneous Nadir Overpasses (SNOs) Prediction Service
